Location: Borbetomagus
(49.6328°N, 8.3592°E)
Time: 21:23:58
(UTC+00:00)

Cosmos 2074 Rocket - Pass Details

Date: 19 May 2025
Orbit: 965 x 986 km, 82.9° (Epoch: 15 June)

Event Time Altitude Azimuth Distance (km) Brightness Sun altitude
Rises 19:39:27 0° 350° (N) 3,680 7.9 -4.7°
Reaches altitude 10° 19:41:58 10° 350° (N) 2,726 7.2 -5.0°
Maximum altitude 19:48:14 90° 10° (N) 975 4.1 -5.8°
Drops below altitude 10° 19:54:25 10° 173° (S) 2,699 5.9 -6.5°
Sets 19:56:54 0° 173° (S) 3,641 6.5 -6.8°
